Printer-friendly version

IAU Minor Planet Center

Minor Planet Center

MPEC 2001-S18: 2001 SG10

The following Minor Planet Electronic Circular may be linked-to from your own Web pages, but must not otherwise be redistributed electronically.


Read MPEC 2001-S17 Read MPEC 2001-S19


M.P.E.C. 2001-S18                                Issued 2001 Sept. 20, 19:36 UT

     The Minor Planet Electronic Circulars contain information on unusual
         minor planets and routine data on comets.  They are published
   on behalf of Commission 20 of the International Astronomical Union by the
          Minor Planet Center, Smithsonian Astrophysical Observatory,
                          Cambridge, MA 02138, U.S.A.

             Prepared using the Tamkin Foundation Computer Network

                              MPC@CFA.HARVARD.EDU
          URL http://cfa-www.harvard.edu/iau/mpc.html  ISSN 1523-6714

                                   2001 SG10

Observations:
     K01S10G* C2001 09 19.24770 01 38 13.30 +22 24 20.5          14.9 R      699
     K01S10G  C2001 09 19.27268 01 37 59.65 +22 18 59.5                      699
     K01S10G  C2001 09 19.29766 01 37 45.92 +22 13 39.4                      699
     K01S10G  C2001 09 19.32265 01 37 32.15 +22 08 19.1                      699
     K01S10G  C2001 09 20.36215 01 29 57.49 +18 45 32.5          15.0 R      699
     K01S10G  C2001 09 20.36681 01 29 55.43 +18 44 43.3                      699
     K01S10G  C2001 09 20.37149 01 29 53.36 +18 43 53.9                      699
     K01S10G  C2001 09 20.37615 01 29 51.31 +18 43 04.5                      699

Observer details:
699 Lowell Observatory-LONEOS.  Observer B. A. Skiff.  0.59-m LONEOS
    Schmidt + CCD.

Orbital elements:
2001 SG10                                                            PHA 0.019
Epoch 2001 Sept. 8.0 TT = JDT 2452160.5                 Spahr
M  24.28355              (2000.0)            P               Q
n   0.56470252     Peri.  101.32133     +0.28377102     +0.95886854
a   1.4496269      Node   185.17873     -0.90624239     +0.26589406
e   0.4252049      Incl.    4.26803     -0.31336678     +0.09935525
P   1.75           H   20.0           G   0.15
From 8 observations 2001 Sept. 19-20.

Ephemeris:
2001 SG10                a,e,i = 1.45, 0.43, 4                   q = 0.8332
Date    TT    R. A. (2000) Decl.     Delta      r     Elong.  Phase     V
2001 09 18    01 50.44   +27 35.3    0.044    1.038   137.3    41.1    14.9
2001 09 23    01 16.83   +12 35.2    0.071    1.070   157.2    21.3    15.5
2001 09 28    01 03.14   +05 59.5    0.102    1.102   168.1    10.8    15.9
2001 10 03    00 55.55   +02 28.0    0.135    1.136   175.0     4.4    16.3
2001 10 08    00 50.77   +00 22.4    0.170    1.169   174.5     4.7    16.9
2001 10 13    00 47.67   -00 55.4    0.208    1.203   169.3     8.8    17.6
2001 10 18    00 45.83   -01 42.5    0.247    1.236   164.0    12.8    18.2
2001 10 23    00 45.08   -02 07.9    0.289    1.269   158.9    16.4    18.7
2001 10 28    00 45.28   -02 17.4    0.334    1.302   154.1    19.5    19.2
2001 11 02    00 46.31   -02 14.7    0.381    1.335   149.5    22.2    19.6
2001 11 07    00 48.08   -02 02.6    0.431    1.367   145.1    24.5    20.0
2001 11 12    00 50.53   -01 42.8    0.484    1.399   140.8    26.5    20.4
2001 11 17    00 53.61   -01 16.9    0.539    1.430   136.8    28.3    20.7
2001 11 22    00 57.27   -00 45.8    0.597    1.460   132.8    29.7    21.0
2001 11 27    01 01.46   -00 10.6    0.657    1.490   129.0    31.0    21.3
2001 12 02    01 06.12   +00 28.0    0.719    1.519   125.3    32.0    21.5
2001 12 07    01 11.19   +01 09.2    0.783    1.548   121.7    32.8    21.8

Timothy B. Spahr             (C) Copyright 2001 MPC           M.P.E.C. 2001-S18

Read MPEC 2001-S17 Read MPEC 2001-S19


Our Web policy. Index to the CBAT/MPC/ICQ pages.


Valid HTML 4.01!